Regional Weather Roundup
Issued by NWS Newport/Morehead, NC

Current Version | Previous Version | Text Only | Print | Product List | Glossary On
Versions: 1 2 3 4 5 6 7 8 9 10 11 12 13 14 15 16 17 18 19 20 21 22 23 24 25 26 27 28 29 30 31 32 33 34 35 36 37 38 39 40 41 42 43 44 45 46 47 48 49 50
000
ASUS42 KMHX 301625
RWRMHX
WEATHER ROUNDUP FOR EASTERN NORTH CAROLINA
NATIONAL WEATHER SERVICE NEWPORT/MOREHEAD CITY NC
1200 PM EDT SUN APR 30 2017

NOTE: "FAIR" INDICATES FEW OR NO CLOUDS BELOW 12,000 FEET
WITH NO SIGNIFICANT WEATHER AND/OR OBSTRUCTIONS TO VISIBILITY

NCZ015>017-031-032-045>047-102-103-301700-
NORTH COAST

CITY           SKY/WX    TMP DP  RH WIND       PRES   REMARKS
EDENTON        SUNNY     83  69  64 W8        30.19S
ELIZABETH CITY SUNNY     81  71  71 SW15      30.18F
KITTY HAWK     MOSUNNY   82  67  61 SW5       30.18F
MANTEO         MOSUNNY   81  69  68 SW8       30.19F

$$

NCZ045>047-081-094-103-104-301700-
CENTRAL COAST

CITY           SKY/WX    TMP DP  RH WIND       PRES   REMARKS
FRISCO         MOSUNNY   80  71  74 SW9       30.23F HAZE

$$

NCZ095-097-098-100-101-301700-
SOUTHERN COAST

CITY           SKY/WX    TMP DP  RH WIND       PRES   REMARKS
BEAUFORT       MOSUNNY   78  74  87 SW14      30.23S
CEDAR ISLAND   NOT AVBL
JACKSONVILLE   PTSUNNY   81  72  74 S15G24    30.21S
PINEY ISLAND   CLOUDY   N/A N/A N/A SW17G24   30.22
WILMINGTON     MOSUNNY   83  70  64 S16G23    30.22S


$$

NCZ011>013-027>030-043-044-078>080-089-090>093-098-301700-
COASTAL PLAIN

CITY           SKY/WX    TMP DP  RH WIND       PRES   REMARKS
AHOSKIE          N/A     81  68  65 S7        30.16F
CLINTON        CLOUDY    81  71  69 S6        30.20F
ELIZABETHTOWN  CLOUDY    83  68  61 S10       30.19F
GOLDSBORO      CLOUDY    81  71  72 S9        30.18F
GREENVILLE     MOSUNNY   82  68  61 SW12      30.20F
HAVELOCK       NOT AVBL
KENANSVILLE    PTSUNNY   82  68  61 S3        30.20F
KINSTON        PTSUNNY   84  68  58 SW10      30.20F
NEW BERN       MOSUNNY   83  68  60 SW13      30.22F
RICHLANDS      CLOUDY    82  70  66 S13       30.21F
ROCKY MOUNT    CLOUDY    80  69  69 S12       30.18F
WASHINGTON     MOSUNNY   82  68  61 SW10G16   30.19F
WHITEVILLE     MOSUNNY   81  69  68 S10G18    30.19F

$$

AMZ130-135-150-152-154-156-158-170-250-252-270-ANZ085-086-088-633-658-670-301700-
MARINE OBSERVATIONS

STATION/POSITION TIME  TEMP    WIND        PRES    WAVE   SWELL
                       AIR SEA DIR/SP/G            HT/PER HT/PER
                 (UTC) (F)     (DEG/KT/KT) (MB)    (FT/S) (FT/S)
CHESAPEAKE LIGHT NOT AVBL
64 E VA BEACH    1550   62 59  200/  6/  8 1023.1    2/ 5   2/ 5
DUCK             1600   77 56  220/ 12/ 14 1021.7
2 E DUCK         1600      60                N/A     2/ 5
OREGON INLET     1600   75 77  200/ 16/ 19 1022.5
13E OREGON INLT  1548      65                N/A     2/ 5   2/ 7
HATTERAS CG      1600   77 73  210/  9/ 12 1023.4
DIAMOND BUOY     1550   77 75  210/ 16/ 17 1023.5    3/ 7   2/ 7
CAPE LOOKOUT     1600   78     220/  8/ 12 1023.5
BEAUFORT LAB     1600   76 71  210/  9/ 12 1023.1
30 SE NEW RVR IN 1608   74     220/ 12/ 16 1023.9
30 SE NEW RVR IN 1613      74                N/A     3/ 5
27 SE WRIGHTSVLE 1608   75 74  180/ 14/ 17 1022.7
5 SE WRIGHTSVLE  1608   74 72  190/  8/ 12 1023.6
225 S CAPE HAT   1550   74 76  160/ 12/ 14 1025.3    3/ 6   3/ 6
41 SE CHARLESTON 1610   77 76  160/ 14/ 16 1023.0

$$




USA.gov is the U.S. government's official web portal to all federal, state and local government web resources and services.